TimeCST,TemperatureF,Dew PointF,Humidity,Sea Level PressureIn,VisibilityMPH,Wind Direction,Wind SpeedMPH,Gust SpeedMPH,PrecipitationIn,Events,Conditions,WindDirDegrees,DateUTC
12:15 AM,35.6,32.0,87,30.09,6.0,North,8.1,-,N/A,,Overcast,10,2013-01-17 06:15:00
12:41 AM,35.6,32.0,87,30.08,6.0,NNE,10.4,-,N/A,,Overcast,20,2013-01-17 06:41:00
12:53 AM,35.1,32.0,89,30.08,7.0,North,10.4,-,N/A,,Overcast,10,2013-01-17 06:53:00
1:53 AM,35.1,32.0,89,30.09,7.0,North,6.9,-,0.02,,Overcast,10,2013-01-17 07:53:00
2:53 AM,34.0,30.0,85,30.09,9.0,North,8.1,-,0.03,,Overcast,360,2013-01-17 08:53:00
3:53 AM,34.0,28.0,79,30.08,10.0,North,11.5,-,0.01,,Overcast,360,2013-01-17 09:53:00
4:53 AM,35.1,25.0,67,30.11,10.0,North,10.4,18.4,0.00,,Overcast,360,2013-01-17 10:53:00
5:53 AM,35.1,21.9,59,30.12,10.0,North,8.1,-,N/A,,Overcast,350,2013-01-17 11:53:00
6:53 AM,34.0,25.0,70,30.13,10.0,North,10.4,-,N/A,,Overcast,350,2013-01-17 12:53:00
7:53 AM,35.1,26.1,70,30.15,10.0,NE,6.9,-,N/A,,Overcast,40,2013-01-17 13:53:00
8:42 AM,33.8,28.4,81,30.16,8.0,NNE,10.4,19.6,0.00,Snow,Light Snow,20,2013-01-17 14:42:00
8:53 AM,34.0,28.9,82,30.17,3.0,North,6.9,-,0.00,Snow,Light Snow,360,2013-01-17 14:53:00
9:09 AM,33.8,28.4,81,30.16,10.0,North,9.2,-,0.00,,Overcast,350,2013-01-17 15:09:00
9:53 AM,35.1,28.0,76,30.17,10.0,North,5.8,-,0.00,,Overcast,10,2013-01-17 15:53:00
10:53 AM,37.9,28.9,70,30.16,10.0,North,15.0,21.9,N/A,,Partly Cloudy,350,2013-01-17 16:53:00
11:53 AM,39.9,28.9,65,30.17,10.0,North,12.7,-,N/A,,Overcast,10,2013-01-17 17:53:00
12:53 PM,43.0,30.0,60,30.16,10.0,North,12.7,18.4,N/A,,Mostly Cloudy,350,2013-01-17 18:53:00
1:53 PM,46.9,33.1,59,30.17,10.0,North,16.1,24.2,N/A,,Clear,10,2013-01-17 19:53:00
2:53 PM,46.9,34.0,61,30.20,10.0,NNE,13.8,27.6,N/A,,Clear,20,2013-01-17 20:53:00
3:53 PM,46.9,35.1,63,30.26,10.0,North,10.4,17.3,N/A,,Overcast,360,2013-01-17 21:53:00
4:53 PM,46.9,34.0,61,30.30,10.0,North,12.7,-,N/A,,Mostly Cloudy,10,2013-01-17 22:53:00
5:53 PM,44.1,33.1,65,30.34,10.0,North,11.5,-,N/A,,Clear,360,2013-01-17 23:53:00
6:53 PM,42.1,34.0,73,30.37,10.0,North,6.9,-,N/A,,Clear,350,2013-01-18 00:53:00
7:53 PM,39.9,33.1,77,30.40,10.0,North,9.2,-,N/A,,Clear,360,2013-01-18 01:53:00
8:53 PM,39.0,32.0,76,30.42,10.0,North,10.4,-,N/A,,Clear,10,2013-01-18 02:53:00
9:53 PM,37.9,32.0,79,30.43,10.0,North,10.4,-,N/A,,Clear,10,2013-01-18 03:53:00
10:53 PM,36.0,30.9,82,30.45,10.0,NNE,9.2,-,N/A,,Clear,20,2013-01-18 04:53:00
11:53 PM,35.1,30.0,82,30.46,10.0,North,5.8,-,N/A,,Clear,10,2013-01-18 05:53:00